Wind_Speed
34 29 27 25 25 26 27 27 28 25 24 25 25 23 22 20 18 18 18 19 19 19 18 17 16 16 16 16 17 18 18 18 18 19 20 21 21 22 22 22 21 20 20 21
37 32 30 28 27 26 26 26 27 27 26 26 27 27 26 22 21 21 21 22 21 20 20 19 19 19 19 19 20 20 20 21 21 21 22 23 24 25 24 24 23 22 23 22
37 33 32 33 29 28 28 28 28 29 29 30 31 31 29 25 23 24 24 24 24 22 22 23 22 22 21 21 22 22 23 23 24 24 24 25 26 26 26 26 25 25 24 24
36 35 37 36 31 30 29 29 30 32 32 33 35 33 30 26 26 26 25 25 25 24 24 24 24 24 24 24 25 25 25 25 25 27 27 27 28 28 28 28 28 27 26 26
37 37 36 35 34 33 32 33 34 34 34 34 33 34 33 30 28 29 28 27 27 27 27 27 26 27 27 27 27 27 27 27 28 28 28 28 28 28 29 28 28 29 29 29
38 36 36 34 32 32 33 36 37 37 36 35 34 35 34 32 31 31 29 30 30 29 29 30 29 29 29 29 29 28 28 29 29 29 30 29 29 30 30 30 30 31 31 31
38 38 36 34 34 33 35 37 37 36 36 35 35 36 36 33 33 33 31 31 32 31 32 32 31 30 30 31 31 31 30 30 30 31 32 32 32 32 32 32 33 33 33 33
37 37 37 37 37 37 37 37 37 37 36 35 35 35 35 34 33 33 33 33 33 33 33 33 32 31 31 33 33 33 33 33 33 34 34 35 35 35 35 35 35 34 34 34
40 39 38 38 39 39 39 39 39 38 37 37 37 36 36 35 36 36 35 35 34 34 34 35 34 34 34 34 35 35 35 35 36 35 36 36 37 37 36 36 36 35 35 35
39 40 40 39 40 41 40 40 41 40 39 39 37 36 36 36 37 37 36 35 35 35 36 36 36 36 37 37 37 37 37 37 38 38 38 38 38 38 38 37 37 37 36 36
42 42 41 42 42 42 42 41 41 40 38 37 37 36 36 38 38 38 37 37 37 37 37 37 38 38 38 38 39 39 39 38 38 39 39 39 39 39 37 37 36 36 36 37
41 42 41 41 43 42 42 42 42 41 39 37 37 37 38 39 39 39 38 38 38 37 38 38 38 38 38 39 39 38 38 39 39 40 39 39 38 38 38 38 37 36 37 37
40 41 41 40 40 41 42 42 42 41 40 39 38 37 38 38 38 39 38 38 38 40 40 39 39 39 39 39 39 39 39 39 39 39 39 38 38 38 39 39 39 38 38 38
38 38 39 40 40 39 39 40 40 40 39 39 38 37 37 38 39 39 39 40 40 40 40 39 39 39 39 39 39 39 39 39 39 38 38 38 39 39 39 38 38 38 39 38
37 37 37 37 39 39 39 38 38 38 38 37 37 37 37 37 38 39 39 39 39 39 39 39 38 38 38 38 39 39 39 39 38 38 38 38 39 39 39 39 39 39 38 38
35 36 37 37 36 37 37 36 35 36 36 36 36 36 36 36 36 37 38 37 37 37 37 37 37 37 38 38 38 38 38 38 38 38 39 39 39 40 39 39 39 39 39 39
33 33 34 34 35 35 35 34 33 34 35 35 35 35 35 34 34 35 36 36 36 36 37 37 37 37 37 36 37 37 38 38 38 38 39 39 39 40 39 39 39 39 39 38
31 31 31 32 33 33 33 32 32 32 32 32 33 33 33 33 34 34 34 34 33 34 34 35 35 35 35 36 37 37 37 38 38 38 38 38 39 39 39 40 40 39 39 39
30 30 31 31 31 31 31 31 31 31 33 32 32 31 31 32 32 32 31 31 32 32 33 34 35 36 36 36 37 37 38 38 38 38 38 37 37 38 39 39 39 39 38 38
28 29 29 29 29 30 31 30 29 29 30 30 29 29 29 29 30 30 30 31 32 32 33 34 34 35 35 35 36 36 37 37 37 37 37 36 37 37 38 37 36 35 35 36
25 27 27 28 28 28 28 28 27 27 27 28 27 28 28 28 29 29 30 30 31 31 32 33 33 34 34 34 34 35 35 36 35 35 36 36 36 36 36 35 34 34 34 35
23 24 25 25 24 24 25 25 25 25 25 26 27 27 27 27 27 28 28 29 29 30 31 31 31 32 32 32 33 33 34 34 34 34 34 34 34 34 33 33 33 33 33 34
20 20 21 22 22 22 23 24 24 25 25 25 25 24 25 26 26 26 27 28 28 28 28 29 29 29 28 29 30 30 31 32 32 31 32 32 32 32 32 31 31 32 33 33
17 17 18 19 19 21 21 22 24 24 23 22 22 22 23 23 24 25 26 26 26 27 27 27 27 26 26 27 27 28 28 29 29 29 29 29 29 30 30 30 31 31 32 32
14 14 16 16 17 18 18 19 19 20 20 20 20 21 21 22 23 23 23 24 24 24 24 24 24 24 25 25 26 26 26 26 26 27 27 28 28 28 29 29 30 31 31 32
12 13 14 14 13 13 15 17 17 17 18 19 19 20 21 21 22 22 22 22 22 22 22 21 22 22 23 23 24 24 25 25 26 26 26 26 26 26 27 28 29 29 30 30
10 10 11 11 12 13 14 15 15 16 17 17 18 19 20 20 20 21 21 21 21 21 21 20 21 21 21 22 22 22 23 24 24 24 24 24 24 25 25 26 26 27 28 28
Wind_Direction
220 219 224 237 239 232 230 232 235 241 248 250 255 253 252 255 259 262 262 261 264 265 265 267 267 271 275 281 284 287 289 292 295 297 299 299 301 301 303 304 303 304 305 305
224 222 223 227 235 240 238 236 237 238 243 247 251 253 254 253 255 259 263 264 264 267 266 265 267 269 272 276 280 283 286 288 290 293 296 298 298 300 300 303 302 302 303 303
228 227 229 229 228 235 241 242 239 240 241 244 247 251 254 254 255 256 260 263 264 263 264 264 266 268 269 274 277 281 282 285 289 291 294 297 298 300 301 302 300 298 299 300
231 228 230 230 226 229 233 237 239 241 242 246 249 251 253 255 256 259 259 260 262 262 261 263 264 267 270 274 277 279 281 283 288 290 291 294 295 296 298 299 300 300 299 299
232 234 236 235 231 231 231 233 236 240 243 248 251 253 252 251 253 256 259 259 260 261 261 264 266 267 269 272 274 278 280 282 285 288 288 290 292 293 295 299 299 300 300 299
233 235 236 237 237 235 236 238 238 240 243 245 248 250 252 253 254 256 256 257 259 260 261 263 265 266 269 271 274 277 282 284 285 288 289 289 291 293 294 296 297 297 297 299
235 236 237 235 237 238 237 239 242 243 246 246 247 250 252 256 258 257 257 258 258 259 261 261 263 265 268 272 276 279 282 283 284 285 287 289 291 292 293 294 295 295 295 296
235 235 237 236 236 236 239 240 243 244 245 248 251 252 253 255 258 258 259 258 258 260 261 260 262 266 267 271 275 278 281 282 284 285 286 288 291 292 292 293 292 292 292 292
236 235 236 238 238 237 240 243 243 244 246 249 251 253 254 255 257 258 258 259 258 259 261 262 264 266 269 271 274 276 279 281 282 284 285 286 288 290 291 291 289 289 288 289
236 236 235 237 239 239 240 241 244 245 248 249 250 251 252 254 255 257 259 260 259 259 261 263 265 267 270 273 275 277 278 279 280 281 283 285 287 289 289 289 289 288 288 287
237 239 239 237 239 240 243 244 244 245 247 249 251 251 252 253 254 256 257 259 259 259 260 262 265 268 270 272 274 276 277 278 279 280 283 285 286 288 289 288 289 289 289 289
237 239 240 241 240 240 242 244 245 245 246 248 249 250 251 253 254 255 257 259 259 260 262 264 267 269 270 271 273 275 275 276 278 280 282 284 286 287 287 287 287 289 290 290
238 237 239 242 242 241 242 245 247 247 247 248 249 251 252 253 255 256 257 258 260 263 265 265 266 268 270 271 272 274 275 277 279 281 282 284 284 285 286 287 287 287 289 289
239 238 239 241 243 243 243 244 245 245 245 247 249 251 253 254 255 257 257 258 260 262 264 266 268 269 271 272 272 274 276 277 279 280 282 283 285 286 287 288 288 287 288 287
236 237 239 241 242 243 243 244 245 245 246 247 249 252 253 254 256 258 258 259 260 263 265 268 268 269 271 272 273 274 276 278 279 280 282 284 285 286 287 287 287 288 288 287
237 238 239 240 240 241 242 244 244 245 246 248 249 252 254 256 258 258 259 260 261 264 266 268 270 270 272 272 273 274 276 278 279 280 282 283 284 284 284 285 286 287 287 288
238 239 240 241 241 241 242 243 244 244 246 248 249 251 255 257 258 260 261 262 263 265 267 269 270 271 272 273 274 275 276 278 280 281 282 283 283 284 284 285 285 286 288 289
239 240 241 243 243 242 243 244 243 243 246 248 249 252 255 256 258 260 261 263 264 266 268 269 270 271 272 273 274 275 277 280 282 282 282 283 283 283 283 284 286 286 288 288
240 241 241 242 242 242 242 241 242 243 245 248 251 253 255 257 258 259 261 263 265 267 269 272 273 274 275 275 276 277 278 280 281 281 282 284 284 284 285 286 286 287 287 287
240 241 242 242 241 240 239 240 243 246 247 249 252 254 255 256 259 260 262 264 266 269 272 274 276 276 277 276 276 277 279 280 280 281 282 284 284 285 287 287 287 286 286 286
240 240 241 242 241 241 239 240 243 245 246 249 251 254 256 258 260 261 263 265 269 271 273 275 276 278 278 277 278 279 280 280 281 282 283 283 284 285 286 286 286 286 287 286
234 235 238 239 238 238 238 239 241 246 249 251 253 256 257 258 261 262 264 268 270 273 275 276 278 279 279 278 279 280 280 280 280 282 284 284 285 286 286 287 287 287 287 287
232 236 238 236 236 237 239 241 243 247 248 250 253 256 258 260 262 263 265 269 272 275 276 277 278 279 279 279 281 282 283 282 282 282 284 285 285 285 285 287 288 289 290 290
229 232 235 235 235 236 238 240 243 246 248 250 253 257 260 262 264 266 270 271 272 275 277 278 277 278 278 280 283 284 285 284 284 284 285 285 286 286 285 285 287 289 291 292
227 231 235 237 239 239 239 242 244 246 247 249 253 257 261 264 267 269 270 272 274 275 275 275 275 277 279 280 284 286 287 287 287 287 287 288 287 287 287 287 288 289 290 291
225 227 230 234 238 239 240 244 247 249 252 253 255 258 261 264 267 270 273 273 274 276 277 275 275 277 279 281 284 286 288 288 288 288 290 291 291 290 290 290 291 292 293 293
226 230 233 239 242 243 245 246 250 253 255 255 256 259 262 266 269 272 272 273 276 277 278 279 279 280 281 282 283 285 287 290 290 289 291 292 292 293 294 295 295 296 296 295
Height
5853 5858 5863 5865 5868 5871 5874 5877 5880 5882 5883 5882 5882 5883 5884 5885 5886 5887 5888 5889 5889 5889 5888 5889 5890 5891 5892 5892 5892 5892 5891 5891 5890 5890 5889 5888 5886 5884 5882 5880 5878 5877 5875 5874
5844 5849 5854 5857 5862 5865 5868 5871 5874 5875 5876 5876 5876 5877 5878 5879 5882 5883 5884 5884 5884 5885 5884 5885 5886 5887 5888 5888 5888 5888 5887 5887 5886 5885 5884 5883 5881 5879 5877 5875 5874 5872 5870 5868
5836 5842 5845 5849 5854 5859 5862 5864 5867 5869 5869 5868 5869 5870 5872 5873 5875 5877 5878 5879 5879 5879 5880 5881 5882 5882 5882 5883 5883 5883 5882 5882 5880 5879 5878 5877 5876 5874 5872 5871 5869 5867 5865 5863
5829 5834 5836 5843 5847 5850 5853 5856 5859 5860 5861 5861 5862 5863 5865 5866 5869 5871 5872 5873 5874 5874 5875 5875 5876 5877 5877 5877 5877 5877 5877 5876 5875 5873 5872 5871 5870 5868 5867 5865 5863 5861 5859 5857
5820 5823 5828 5834 5837 5841 5844 5846 5850 5851 5853 5854 5856 5857 5858 5860 5862 5864 5865 5866 5867 5868 5869 5869 5870 5870 5871 5871 5871 5870 5870 5869 5868 5866 5865 5864 5863 5862 5860 5859 5857 5855 5853 5851
5810 5814 5819 5826 5829 5831 5835 5836 5839 5841 5843 5846 5848 5849 5851 5853 5855 5857 5857 5859 5860 5861 5862 5863 5863 5864 5864 5864 5864 5863 5863 5862 5861 5860 5858 5857 5856 5855 5853 5851 5850 5848 5846 5844
5801 5804 5809 5815 5818 5822 5825 5827 5829 5832 5835 5837 5839 5841 5844 5845 5846 5847 5849 5851 5852 5853 5855 5855 5855 5855 5856 5857 5856 5856 5855 5855 5854 5852 5851 5850 5848 5847 5845 5844 5842 5840 5838 5837
5791 5795 5802 5804 5807 5811 5813 5817 5820 5822 5825 5828 5831 5833 5834 5836 5837 5839 5840 5842 5844 5845 5846 5847 5847 5847 5848 5848 5849 5848 5848 5847 5846 5844 5843 5841 5840 5839 5837 5835 5833 5832 5830 5828
5783 5787 5790 5793 5796 5800 5803 5807 5810 5813 5817 5820 5822 5824 5826 5828 5829 5830 5832 5833 5835 5836 5837 5838 5839 5840 5840 5840 5840 5840 5839 5839 5838 5836 5835 5833 5832 5830 5828 5826 5824 5822 5820 5819
5771 5775 5779 5782 5784 5788 5791 5795 5800 5804 5807 5810 5813 5815 5817 5819 5820 5822 5823 5825 5826 5828 5829 5830 5830 5831 5831 5831 5831 5831 5830 5829 5829 5827 5826 5824 5823 5821 5819 5817 5815 5813 5811 5809
5761 5765 5768 5771 5775 5779 5783 5786 5791 5794 5798 5800 5803 5806 5808 5809 5810 5812 5814 5815 5817 5818 5819 5820 5821 5821 5821 5821 5821 5821 5820 5819 5818 5818 5816 5815 5813 5811 5810 5808 5805 5803 5801 5800
5751 5756 5758 5761 5766 5770 5773 5777 5781 5784 5788 5790 5793 5796 5798 5799 5801 5803 5804 5805 5805 5807 5808 5810 5811 5811 5811 5811 5811 5811 5810 5809 5808 5807 5806 5804 5803 5801 5799 5798 5796 5794 5792 5789
5741 5744 5747 5751 5755 5759 5763 5767 5770 5774 5777 5781 5783 5786 5788 5789 5791 5793 5795 5796 5796 5797 5798 5799 5800 5800 5800 5800 5800 5800 5799 5799 5798 5797 5795 5794 5792 5790 5789 5787 5785 5783 5781 5779
5731 5735 5738 5742 5746 5749 5753 5757 5760 5764 5768 5770 5773 5776 5778 5779 5781 5783 5785 5786 5787 5788 5787 5788 5789 5790 5790 5790 5790 5789 5789 5789 5787 5786 5785 5784 5782 5780 5778 5777 5775 5773 5771 5768
5721 5725 5729 5733 5736 5740 5744 5748 5751 5755 5758 5761 5763 5766 5768 5769 5771 5773 5774 5775 5776 5777 5778 5778 5779 5779 5780 5779 5779 5779 5779 5778 5777 5776 5775 5773 5771 5769 5768 5766 5764 5762 5760 5757
5713 5716 5719 5723 5727 5731 5735 5738 5742 5745 5748 5751 5754 5756 5758 5760 5761 5762 5763 5765 5766 5767 5768 5768 5769 5769 5769 5769 5769 5769 5768 5767 5766 5765 5763 5762 5760 5758 5756 5755 5753 5751 5749 5746
5705 5708 5712 5715 5719 5723 5726 5729 5733 5736 5739 5742 5744 5747 5749 5750 5751 5752 5753 5755 5756 5757 5758 5759 5759 5759 5759 5759 5758 5758 5757 5756 5755 5753 5752 5750 5748 5746 5745 5743 5741 5739 5737 5735
5697 5700 5704 5707 5711 5714 5718 5721 5725 5728 5731 5733 5735 5737 5739 5741 5742 5743 5744 5745 5746 5747 5748 5748 5748 5748 5749 5748 5748 5747 5746 5745 5744 5742 5740 5739 5737 5735 5733 5731 5729 5727 5725 5723
5690 5693 5696 5700 5703 5706 5710 5714 5717 5720 5723 5725 5727 5728 5730 5732 5733 5734 5735 5736 5737 5737 5738 5738 5738 5738 5738 5737 5737 5736 5735 5734 5732 5731 5729 5727 5725 5723 5720 5718 5716 5714 5713 5711
5683 5686 5689 5692 5695 5699 5703 5706 5709 5711 5714 5716 5718 5721 5723 5724 5725 5726 5727 5728 5728 5728 5729 5728 5728 5727 5727 5726 5725 5724 5723 5722 5720 5719 5718 5716 5714 5712 5709 5707 5705 5703 5701 5699
5676 5679 5682 5686 5689 5692 5695 5698 5702 5704 5706 5709 5711 5713 5715 5716 5717 5718 5718 5719 5719 5720 5719 5719 5718 5717 5716 5715 5714 5713 5712 5710 5709 5708 5707 5705 5703 5701 5698 5696 5694 5693 5690 5688
5670 5673 5676 5679 5682 5686 5689 5692 5695 5698 5699 5702 5704 5706 5707 5708 5709 5710 5710 5711 5711 5710 5710 5709 5708 5707 5706 5705 5704 5703 5701 5699 5698 5697 5696 5694 5692 5690 5688 5686 5684 5682 5681 5678
5666 5669 5671 5674 5677 5680 5683 5687 5689 5691 5693 5695 5697 5699 5700 5701 5701 5702 5703 5702 5702 5702 5701 5700 5699 5698 5697 5695 5694 5693 5691 5689 5688 5687 5685 5684 5682 5680 5678 5677 5675 5673 5671 5669
5663 5666 5668 5670 5673 5676 5679 5681 5683 5685 5687 5689 5691 5692 5693 5694 5695 5695 5695 5695 5694 5694 5693 5692 5691 5690 5689 5688 5686 5685 5682 5680 5679 5677 5676 5674 5672 5671 5669 5668 5666 5664 5662 5659
5661 5664 5666 5668 5670 5672 5674 5676 5678 5680 5681 5683 5684 5686 5687 5687 5688 5688 5688 5688 5687 5687 5686 5685 5684 5683 5682 5680 5679 5677 5675 5673 5671 5669 5667 5666 5664 5662 5660 5659 5657 5655 5653 5650
5660 5662 5664 5666 5666 5668 5670 5672 5673 5675 5676 5677 5679 5680 5681 5681 5681 5681 5681 5681 5680 5680 5679 5678 5677 5676 5675 5673 5671 5670 5668 5666 5664 5662 5660 5658 5656 5654 5652 5650 5648 5646 5644 5641
5659 5660 5662 5663 5664 5665 5667 5669 5670 5670 5671 5673 5674 5674 5675 5675 5675 5675 5674 5674 5674 5673 5673 5672 5671 5670 5668 5666 5665 5663 5661 5659 5657 5655 5652 5650 5648 5646 5645 5643 5640 5638 5635 5633